Погода в Старой Торопа

Россия / Тверская область     56°16′48″N   31°40′18″E
темп.,
°C
ветер,
м/с
пор.,
м/с
влажн.,
%
обл.,
%
осадки,
мм/ч
давл.,
гПа
погр.,
м
17 октября, вс
вс1700:00+5юз5138413 0.0 1011709
03:00+5зюз5128575 0.0 1011761
06:00+6зюз51183100 0.0 1010996
09:00+6юз5118574 0.1 1010797
12:00+8зюз597795 0.0 1011901
15:00+9зюз597290 0.3 10101180
18:00+7зюз4108295 0.3 10111142
21:00+7зюз5118189 1.6 10101120
18 октября, пн
пн1800:00+6зюз4889100 0.6 10101044
03:00+5сз2690100 2.9 1010637
06:00+4зюз389099 0.7 1010494
09:00+4з49882 0.8 1011843
12:00+7з510665 0.0 10111391
15:00+7зсз51068100 0.3 10111319
18:00+4з4107786 0.3 1012671
21:00+4зсз4108162 0.4 1013692
19 октября, вт
вт1900:00+4сз5981100 0.0 1014836
03:00+3сз488433 0.1 1016733
06:00+2сз4786100 0.0 1018556
09:00+2зсз3891100 0.1 1019595
12:00+3сз4681100 0.3 1020857
15:00+3сз4778100 0.6 10211074
18:00+2зсз498678 0.3 1022562
21:000сз389146 0.4 1023310
20 октября, ср
ср2000:00−2сз259361 0.0 1024138
03:00−1зсз1387100 0.0 1024120
06:00−1юз1384100 0.0 1024122
09:000ююз2578100 0.0 1023270
12:00+3ююз4860100 0.0 1021593
15:00+2ю51284100 0.1 1018639
18:00+3ю61578100 0.8 1014711
21:00+4ю61682100 1.6 1010789
21 октября, чт
чт2100:00+4ююз61793100 2.5 1007752
03:00+6ююз61694100 2.9 1004668
06:00+7ююз61792100 0.6 1002606
09:00+8ююз61789100 1.2 1000673
12:00+9ююз71791100 3.2 998812
15:00+10ююз71788100 4.3 996962
18:00+10юз71787100 0.3 9961281
21:00+11юз7158470 0.3 9961207